Pine Ridge, SD

11:46 PM MST on November 19, 2017 (GMT -0700)
Pine Ridge

Weather History for KIEN - March, 2012

Change the Weather History Date:

Sunday, March 11, 2012

  Actual Average Record
Temperature  
Mean Temperature 50 °F 35 °F  
Max Temperature 63 °F 49 °F 76 °F (2016)
Min Temperature 36 °F 21 °F -27 °F (1998)
Degree Days  
Heating Degree Days 15 30  
Month to date heating degree days 285 354  
Since 1 July heating degree days 5349 5704  
Cooling Degree Days 0 0  
Month to date cooling degree days 0 0  
Year to date cooling degree days 0 0  
Moisture  
Dew Point 38 °F    
Average Humidity 66    
Maximum Humidity 89    
Minimum Humidity 43    
Precipitation  
Precipitation 0.00 in 0.02 in 0.17 in (2001)
Month to date precipitation T 0.22  
Year to date precipitation 1.37 1.01  
Sea Level Pressure  
Sea Level Pressure 29.62 in    
Wind  
Wind Speed 13 mph (SSW)    
Max Wind Speed 23 mph    
Max Gust Speed 28 mph    
Visibility 10 miles    
Events      
T = Trace of Precipitation, MM = Missing Value Source: NWS Daily Summary

Daily Weather History Graph

Daily Weather History Graph

Search for Another Location

Airport or City:

Trip Planner

Search our weather history database for the weather conditions in past years. The results will help you decide how hot, cold, wet, or windy it might be!

Date:

Astronomy

Mar. 11, 2012 Rise Set
Actual Time 7:08 AM MDT 6:52 PM MDT
Civil Twilight 6:39 AM MDT 7:20 PM MDT
Nautical Twilight 6:07 AM MDT 7:53 PM MDT
Astronomical Twilight 5:33 AM MDT 8:26 PM MDT
Moon 11:27 PM MDT (3/11) 8:37 AM MDT (3/11)
Length of Visible Light 12h 40m
Length of Day
11h 44m
Waning Gibbous, 85% of the Moon is Illuminated
Mar 11
Waning Gibbous
Mar 14
Last Quarter
Mar 22
New
Mar 30
First Quarter
Apr 6
Full

Hourly Weather History & Observations

Time (MDT) Temp. Windchill Dew Point Humidity Pressure Visibility Wind Dir Wind Speed Gust Speed Precip Events Conditions
12:52 AM 48.9 °F - 39.0 °F 69% 29.75 in 10.0 mi WSW 11.5 mph 18.4 mph N/A   Clear
1:52 AM 48.0 °F - 39.0 °F 71% 29.72 in 10.0 mi SSW 16.1 mph - N/A   Clear
3:52 AM 46.0 °F 38.8 °F 39.0 °F 76% 29.70 in 10.0 mi SSW 18.4 mph - N/A   Clear
4:52 AM 44.1 °F 41.5 °F 37.9 °F 79% 29.70 in 10.0 mi Variable 4.6 mph - N/A   Clear
6:52 AM 43.0 °F 40.3 °F 37.9 °F 82% 29.69 in 10.0 mi WNW 4.6 mph - N/A   Clear
7:52 AM 44.1 °F 38.1 °F 39.0 °F 82% 29.70 in 10.0 mi South 11.5 mph 21.9 mph N/A   Clear
8:41 AM 44.6 °F 39.2 °F 39.2 °F 81% 29.70 in 10.0 mi SSE 10.4 mph 17.3 mph N/A   Partly Cloudy
8:52 AM 43.0 °F 36.8 °F 39.0 °F 86% 29.72 in 10.0 mi SSE 11.5 mph 20.7 mph N/A   Mostly Cloudy
9:52 AM 46.0 °F 38.5 °F 41.0 °F 83% 29.69 in 10.0 mi South 19.6 mph 24.2 mph N/A   Overcast
10:52 AM 46.9 °F - 41.0 °F 80% 29.70 in 10.0 mi SSW 16.1 mph 26.5 mph N/A   Overcast
11:52 AM 53.1 °F - 42.1 °F 66% 29.65 in 10.0 mi South 11.5 mph 21.9 mph N/A   Mostly Cloudy
12:07 PM 53.6 °F - 42.8 °F 67% 29.67 in 10.0 mi SSW 16.1 mph - N/A   Scattered Clouds
12:52 PM 55.0 °F - 41.0 °F 59% 29.63 in 10.0 mi South 17.3 mph 24.2 mph N/A   Clear
1:52 PM 55.9 °F - 41.0 °F 57% 29.60 in 10.0 mi South 16.1 mph 25.3 mph N/A   Clear
2:52 PM 60.1 °F - 39.9 °F 47% 29.55 in 10.0 mi South 16.1 mph 25.3 mph N/A   Clear
3:52 PM 62.1 °F - 39.9 °F 44% 29.52 in 10.0 mi South 15.0 mph - N/A   Clear
4:52 PM 62.1 °F - 39.0 °F 43% 29.51 in 10.0 mi South 13.8 mph 20.7 mph N/A   Clear
5:52 PM 60.1 °F - 39.0 °F 46% 29.51 in 10.0 mi South 15.0 mph 19.6 mph N/A   Clear
6:52 PM 55.0 °F - 39.0 °F 55% 29.52 in 10.0 mi South 9.2 mph - N/A   Clear
7:52 PM 50.0 °F - 37.0 °F 61% 29.53 in 10.0 mi South 16.1 mph 23.0 mph N/A   Clear
8:52 PM 46.9 °F - 36.0 °F 66% 29.53 in 10.0 mi South 18.4 mph 26.5 mph N/A   Clear
9:52 PM 45.0 °F 38.2 °F 35.1 °F 68% 29.52 in 10.0 mi South 15.0 mph - N/A   Clear
10:52 PM 43.0 °F 37.7 °F 34.0 °F 71% 29.53 in 10.0 mi SSW 9.2 mph - N/A   Clear
11:52 PM 37.9 °F 33.5 °F 32.0 °F 79% 29.52 in 10.0 mi WSW 5.8 mph - N/A   Clear
12:52 AM 37.0 °F 34.5 °F 30.0 °F 76% 29.52 in 10.0 mi West 3.5 mph - N/A   Clear